Regional Weather Roundup
Issued by NWS

Home | Current Version | Previous Version | Graphics & Text | Print | Product List | Glossary On
Versions: 1 2 3 4 5 6 7 8 9 10 11 12 13 14 15 16 17 18 19 20 21 22 23 24 25 26 27 28 29 30 31 32 33 34 35 36 37 38 39 40 41 42 43 44 45 46 47 48 49 50
000
ASUS43 KFSD 161810
RWRSD

WEATHER ROUNDUP FOR SOUTH DAKOTA
NATIONAL WEATHER SERVICE SIOUX FALLS SD
100 PM CDT WED AUG 16 2017

NOTE: "FAIR" INDICATES FEW OR NO CLOUDS BELOW 12,000 FEET WITH NO
SIGNIFICANT WEATHER AND/OR OBSTRUCTIONS TO VISIBILITY.


SDZ001>005-009-010-012>017-161900-
NORTHWEST AND NORTH CENTRAL SOUTH DAKOTA

CITY           SKY/WX    TMP DP  RH WIND       PRES   REMARKS
BUFFALO          N/A     76  53  44 VRB5      29.94F
FAITH            N/A     74  58  57 N10       29.96S
MOBRIDGE       CLOUDY    69  60  73 N13G20    29.90R
$$

SDZ012>016-024>037-041>051-057-063-072>074-161900-
SOUTHWEST AND SOUTH CENTRAL SOUTH DAKOTA

CITY           SKY/WX    TMP DP  RH WIND       PRES   REMARKS
RAPID CTY ARPT SUNNY     74  53  48 N14G22    30.02R
PIERRE         CLOUDY    66  58  75 N16       29.90R
CUSTER         SUNNY     68  37  32 NE9G16    30.11R
ELLSWORTH AFB  SUNNY     73  53  48 N15G22    30.01R
PHILIP         CLOUDY    73  58  59 N9        29.95S
PINE RIDGE     CLOUDY    69  58  67 N9        30.02S
SPEARFISH      FAIR      72  46  40 VRB7      30.06S
WINNER         LGT RAIN  66  63  90 N17       29.89S
$$

SDZ004>011-016>023-039-040-161900-
NORTHEAST SOUTH DAKOTA

CITY           SKY/WX    TMP DP  RH WIND       PRES   REMARKS
ABERDEEN       LGT RAIN  68  66  93 NW8       29.84S
WATERTOWN      LGT RAIN  68  66  93 NE7       29.82F
BROOKINGS      LGT RAIN  67  65  93 NE3       29.82F
SISSETON         N/A     69  67  93 CALM      29.82F
$$

SDZ017-020-022-023-036>040-048>070-161900-
SOUTHEAST SOUTH DAKOTA

CITY           SKY/WX    TMP DP  RH WIND       PRES   REMARKS
SIOUX FALLS    HVY RAIN  68  67  96 NE7       29.79S FOG
HURON          RAIN      68  67  96 N7        29.82F FOG
CHAMBERLAIN    RAIN      67  67 100 NW12G21   29.86R
MITCHELL       CLOUDY    69  65  86 NW3       29.83F
YANKTON        RAIN      66  64  93 NW16      29.80S FOG
$$

ABBREVIATIONS USED IN REMARKS
   TC - TEMPERATURE IN CELSIUS
  WCI - WIND CHILL INDEX
   HX - HEAT INDEX
  VSB - VISIBILITY





USA.gov is the U.S. government's official web portal to all federal, state and local government web resources and services.